SCP
0 0 0 0 0 0 0 0 0 0 0 0 0 0 0 0 0 0 0 0 0 0 0 0 0 0 0 0 -0 -0 0 0 0 0 0 0 0 0 0 0 0 0 0
0 0 0 0 0 0 0 0 0 0 0 0 0 0 0 0 0 0 0 0 0 0 0 0 0 0 0 -0 -0 -0 -0 -0 0 0 0 0 0 0 0 0 0 0 0
0 0 0 0 0 0 0 0 0 0 0 0 0 0 0 0 0 0 0 0 0 0 0 0 0 0 0 -0 -0 -0 0 -0 -0 0 0 0 0 0 0 0 0 0 0
0 0 0 0 0 0 0 0 0 0 0 0 0 0 0 0 0 0 0 0 0 0 0 0 0 0 0 -0 -0 -0 0 -0 0 0 0 0 0 0 0 0 0 0 0
1 0 0 0 0 0 0 0 0 0 0 0 0 0 0 0 0 0 0 0 0 0 0 0 0 0 0 -0 0 0 0 0 0 -0 0 0 0 0 0 0 0 0 0
1 0 0 0 0 0 0 0 0 0 0 0 0 0 0 0 0 0 0 0 0 0 0 0 0 0 0 0 0 0 0 0 0 0 0 -0 0 0 0 0 0 0 0
0 0 0 0 0 0 0 0 0 0 0 0 0 0 0 0 0 0 0 0 0 0 0 0 0 0 0 0 0 0 0 0 0 0 0 0 0 0 0 0 0 0 0
0 0 0 0 0 0 0 0 0 0 0 0 0 0 0 0 0 0 0 0 0 0 0 0 0 0 0 0 0 0 0 0 0 0 0 0 0 0 0 0 0 0 0
0 0 0 0 0 0 0 0 0 0 0 0 0 0 0 0 0 0 0 0 0 0 0 0 0 0 0 0 0 0 0 0 0 0 0 0 0 0 0 0 0 0 0
0 0 0 0 0 0 0 0 0 0 0 0 0 0 0 0 0 0 0 0 0 0 0 0 0 0 0 0 0 0 0 0 0 0 0 0 0 0 0 0 0 0 0
0 0 0 0 0 0 0 0 0 0 0 0 0 0 0 0 0 0 0 0 0 0 0 0 0 0 0 0 0 0 0 0 0 0 0 0 0 0 0 0 0 0 0
0 0 0 0 0 0 0 0 0 0 0 0 0 0 0 0 0 0 0 0 0 0 0 0 0 0 0 0 0 0 0 0 0 0 0 0 0 0 0 0 0 0 0
0 0 0 0 0 0 0 0 0 0 0 0 0 0 0 0 0 0 0 0 0 0 0 0 0 0 0 0 0 0 0 0 0 0 0 0 0 0 0 0 0 0 0
0 0 0 0 0 0 0 0 0 0 0 0 0 0 0 0 0 0 0 0 0 0 0 0 0 0 0 0 0 0 0 0 0 0 0 0 0 0 0 0 0 0 0
0 0 0 0 0 0 0 0 0 0 0 0 0 0 0 0 0 0 0 0 0 0 0 0 0 0 0 0 0 0 0 0 0 0 0 0 0 0 0 0 0 0 0
0 0 0 0 0 0 0 0 0 0 0 0 0 0 0 0 0 0 0 0 0 0 0 0 0 0 0 0 0 0 0 0 0 0 0 0 0 0 0 0 0 0 0
0 0 0 0 0 0 0 0 0 0 0 0 0 0 0 0 0 0 0 0 0 0 0 0 0 0 0 0 0 0 0 0 0 0 0 0 0 0 0 0 0 0 0
0 0 0 0 0 0 0 0 0 0 0 0 0 0 0 0 0 0 0 0 0 0 0 0 0 0 0 0 0 0 0 0 0 0 0 0 0 0 0 0 0 0 0
0 0 0 0 0 0 0 0 0 0 0 0 0 0 0 0 0 0 0 0 0 0 0 0 0 0 0 0 0 0 0 0 0 0 0 0 0 0 0 0 0 0 0
0 0 0 0 0 0 0 0 0 0 0 0 0 0 0 0 0 0 0 0 0 0 0 0 0 0 0 0 0 0 0 0 0 0 0 0 0 0 0 0 0 0 0
0 0 0 0 0 0 0 0 0 0 0 0 0 0 0 0 0 0 0 0 0 0 0 0 0 0 0 0 0 0 0 0 0 0 0 0 0 0 0 0 0 0 0
0 0 0 0 0 0 0 0 0 0 0 0 0 0 0 0 0 0 0 0 0 0 0 0 0 0 0 0 0 0 0 0 0 0 0 0 0 0 0 0 0 0 0
0 0 0 0 0 0 0 0 0 0 0 0 0 0 0 0 0 0 0 0 0 0 0 0 0 0 0 0 0 0 0 0 0 0 0 0 0 0 -0 0 0 0 0
0 0 0 0 0 0 0 0 0 0 0 0 0 0 0 0 0 0 0 0 0 0 0 0 0 0 0 0 0 0 0 0 -0 0 0 0 0 0 0 0 0 0 -0
0 0 0 0 0 0 0 0 0 0 0 0 0 0 0 0 0 0 0 0 0 0 0 0 0 0 0 0 0 0 0 0 0 0 0 0 0 0 0 0 0 0 -0
0 0 0 0 0 0 0 0 0 0 0 0 0 0 0 0 0 0 0 0 0 0 0 0 0 0 0 0 0 0 0 0 -0 -0 0 0 0 0 0 0 0 -0 -0
Wind_Speed_500mb
20 23 22 24 26 30 34 34 35 34 34 41 49 60 52 42 42 44 52 49 50 51 49 51 50 48 39 45 46 37 28 30 26 25 29 30 30 31 35 38 37 47 52
15 27 35 37 37 37 37 38 38 42 47 53 57 49 43 43 48 56 52 48 50 53 44 44 45 42 43 43 42 42 30 29 30 28 33 30 34 35 32 37 43 39 45
23 31 39 36 40 44 45 48 48 49 51 55 53 46 46 52 56 46 44 52 28 30 37 40 41 45 40 38 38 36 29 32 33 40 42 47 36 34 29 35 39 46 44
37 36 34 42 47 49 48 46 44 47 52 50 46 47 52 51 48 42 40 29 33 33 33 29 34 44 37 34 34 34 38 34 45 41 57 36 32 38 32 33 37 42 48
44 42 42 40 45 49 47 45 47 52 49 45 48 52 51 47 36 36 31 33 13 21 26 30 31 35 38 36 39 33 40 40 50 51 38 37 48 48 43 37 34 37 44
49 49 46 42 41 44 44 46 48 47 44 48 52 53 53 38 22 21 15 11 15 22 29 25 22 26 33 35 36 37 37 36 42 42 46 59 58 55 50 43 36 37 41
52 51 49 44 43 44 44 45 43 42 45 49 54 55 50 34 21 23 22 28 23 18 24 28 27 22 23 30 34 40 48 44 40 49 45 49 51 55 52 37 39 38 37
57 54 47 45 45 41 40 41 42 43 46 45 47 45 18 35 12 16 28 13 20 30 26 22 22 24 24 28 37 43 48 53 47 41 40 44 42 56 59 46 37 39 31
55 46 42 45 41 39 39 39 42 45 46 40 39 27 11 8 39 27 25 10 22 28 29 39 44 50 53 51 51 47 41 55 44 37 42 42 41 38 38 36 37 38 30
52 39 41 37 36 35 33 37 41 42 42 41 30 24 22 28 15 14 26 33 30 36 42 49 54 54 57 45 40 40 42 52 46 45 47 49 49 47 47 45 39 39 44
36 33 31 32 34 31 35 38 41 38 35 34 26 25 18 24 23 27 39 37 39 45 51 61 47 40 45 45 48 52 62 52 45 50 50 49 50 51 48 35 42 39 42
31 32 34 32 30 33 36 40 39 35 31 28 23 16 20 22 26 34 40 43 50 53 52 52 61 62 45 40 45 50 58 41 48 50 56 58 52 50 49 44 46 47 43
34 33 30 24 28 33 39 40 33 26 24 19 19 21 24 28 32 36 39 48 51 61 57 63 56 60 40 48 53 50 48 50 47 50 53 46 44 48 50 48 46 49 50
25 29 26 28 33 38 40 33 27 22 20 21 24 29 31 32 37 40 43 51 60 57 66 66 70 60 61 49 56 43 47 52 48 49 47 46 47 46 47 50 48 55 49
29 29 30 33 36 36 31 28 26 27 25 28 31 33 37 42 41 42 48 54 54 58 58 65 66 60 64 43 34 40 47 44 43 45 47 41 39 39 45 45 44 41 42
30 30 32 35 36 31 28 29 31 32 34 33 35 36 35 42 41 44 55 52 52 59 52 65 64 57 54 34 37 40 41 36 39 42 40 36 37 37 35 39 39 41 40
29 29 31 30 28 27 29 34 36 37 36 37 34 42 44 44 46 60 63 51 48 56 59 64 59 57 55 43 40 38 32 36 39 42 42 38 37 40 40 40 39 42 44
28 28 26 25 25 29 34 39 38 35 38 37 40 41 45 52 61 68 50 44 47 54 61 57 60 59 53 39 41 35 31 32 42 41 41 40 36 38 34 34 34 32 36
22 23 23 25 31 36 37 36 38 40 40 41 42 47 54 64 65 45 44 50 54 48 58 65 66 60 52 38 36 29 34 39 41 41 44 41 36 33 32 35 35 29 30
20 20 23 29 36 40 41 40 40 35 36 44 48 47 52 58 48 47 49 49 53 54 61 68 64 56 44 37 37 36 38 39 45 40 34 20 27 24 30 29 34 25 25
20 22 28 33 38 42 37 34 35 38 41 43 47 56 58 53 45 47 53 55 53 63 73 58 59 44 41 37 36 38 44 46 45 30 26 20 19 16 19 19 11 22 26
20 27 31 40 35 28 27 30 36 42 44 48 51 57 57 49 49 46 42 51 62 66 54 44 49 54 42 33 34 37 44 45 42 18 29 9 14 22 25 13 14 16 13
22 30 36 36 21 25 34 41 44 50 56 59 60 51 54 47 49 64 78 85 66 52 43 42 46 46 45 35 30 37 42 36 29 19 28 19 16 20 21 13 2 8 14
27 35 31 16 33 39 41 46 52 53 59 54 51 51 58 70 79 76 56 48 45 43 48 55 43 44 31 35 34 36 38 30 20 15 16 22 22 20 16 10 15 19 27
29 11 15 29 37 39 39 32 50 45 46 49 55 67 79 68 47 47 56 60 60 58 55 54 45 41 43 37 30 35 29 13 22 17 10 19 23 30 9 15 26 24 29
6 15 20 30 30 34 33 41 31 37 53 67 75 73 56 50 48 38 34 35 35 34 34 31 24 19 19 22 28 29 13 15 15 14 7 24 21 28 23 11 26 27 32
Wind_Direction_500mb
244 254 258 255 268 264 260 270 265 275 283 284 287 293 297 299 299 292 294 295 295 297 298 300 301 304 306 326 336 335 331 335 332 304 296 288 286 275 267 261 263 255 251
265 251 252 255 263 268 267 274 277 278 281 288 296 301 300 299 295 293 291 293 297 293 292 294 294 300 317 327 331 331 332 344 334 324 323 315 284 279 274 269 261 260 253
253 247 242 246 251 258 268 275 280 282 284 295 297 298 299 296 296 289 291 298 301 301 298 301 294 306 319 323 330 328 297 331 326 323 318 325 318 312 281 279 272 263 258
241 257 262 260 258 261 267 273 279 284 290 292 294 300 300 301 301 299 294 283 295 303 305 307 310 305 308 319 323 321 298 314 315 319 316 309 311 322 300 286 280 265 262
249 256 264 274 268 268 269 276 284 289 291 294 301 305 308 312 314 310 302 299 298 292 296 305 306 295 294 300 308 315 305 306 309 309 296 292 305 310 310 296 291 274 261
248 252 263 274 271 267 270 277 282 288 293 301 304 307 312 311 297 324 336 322 303 289 291 300 304 296 283 291 300 297 300 301 306 306 303 305 298 303 298 284 292 288 268
247 255 266 274 273 269 270 276 282 288 300 301 304 308 310 310 290 282 307 321 310 310 314 306 294 291 285 296 303 307 311 308 306 299 298 289 288 295 303 309 284 292 275
254 255 266 272 277 268 273 282 286 294 296 300 305 312 320 320 296 315 313 321 329 331 327 314 316 312 305 299 297 293 293 298 309 305 290 285 283 292 298 296 283 284 291
249 262 268 274 270 273 281 285 291 294 297 299 304 305 318 301 317 318 312 307 321 330 316 317 317 315 315 306 289 294 303 296 314 303 288 280 275 285 294 293 291 283 277
247 254 271 267 271 275 281 290 294 297 298 298 301 294 294 304 331 309 315 299 305 314 318 317 316 317 324 307 293 305 305 299 295 296 296 295 288 282 286 290 285 284 264
248 267 272 279 276 281 288 298 302 301 299 301 303 301 302 316 311 320 322 328 317 311 307 308 319 319 316 309 304 307 306 306 296 292 289 284 283 280 283 280 284 284 273
253 272 277 282 280 285 295 305 303 302 300 302 303 298 320 315 329 327 318 317 316 316 310 316 324 320 309 289 296 305 308 308 309 297 292 289 283 282 279 279 277 279 278
249 274 279 282 282 290 304 305 303 303 308 296 296 301 306 307 304 308 304 310 310 316 312 318 326 325 320 291 293 302 304 305 307 309 298 296 288 279 275 275 272 277 268
264 270 278 289 292 300 304 301 307 316 317 302 298 293 299 298 298 300 306 313 311 309 311 318 321 324 320 294 292 291 294 302 305 311 307 301 293 282 281 278 276 278 266
270 275 281 284 292 300 301 309 318 321 317 321 305 293 294 296 292 300 302 303 309 300 304 315 316 320 318 307 293 297 299 300 307 315 308 298 293 283 280 277 277 275 266
272 274 277 285 295 297 308 318 312 309 300 301 310 300 300 296 293 297 300 303 302 299 304 312 318 319 321 311 308 301 300 298 306 312 312 302 294 287 279 279 276 272 272
271 277 285 289 294 309 314 301 301 301 295 303 305 299 301 303 300 300 300 297 297 297 298 307 312 316 316 307 305 305 296 300 302 308 314 305 293 288 290 279 278 269 273
270 279 287 294 304 304 298 297 299 298 298 297 297 300 307 308 307 305 297 298 299 302 299 299 305 312 315 309 309 303 297 298 301 305 310 308 294 288 287 277 278 270 268
275 290 299 306 304 301 299 299 299 297 297 300 302 305 311 313 311 302 296 295 303 309 308 296 296 305 308 309 309 301 294 296 296 303 307 300 284 284 284 279 273 271 264
301 308 310 307 305 302 301 298 298 302 306 303 305 308 311 311 315 308 304 303 303 309 314 301 290 296 301 306 311 320 314 314 312 309 313 317 317 293 290 281 271 270 266
307 307 307 309 310 306 308 300 302 308 307 307 306 308 304 302 304 300 300 301 297 302 306 296 290 292 295 304 303 310 317 316 318 332 317 329 307 322 312 301 282 254 264
306 311 311 306 314 325 325 316 311 306 309 305 301 299 291 291 289 288 289 296 299 303 302 291 298 290 291 296 299 301 314 323 323 342 317 332 338 341 344 294 260 294 276
303 308 311 319 334 331 322 312 310 302 302 296 294 297 301 293 297 304 301 300 296 289 285 293 292 301 276 286 293 299 308 314 312 328 314 316 357 345 337 54 105 307 313
302 312 319 321 317 318 315 307 305 302 298 299 303 301 302 308 307 304 301 296 283 281 287 290 291 269 276 280 277 285 303 304 310 322 306 317 353 344 338 10 346 325 332
313 344 332 318 315 314 318 315 317 305 303 302 301 307 314 316 310 294 292 294 295 300 295 293 288 280 264 267 256 281 298 289 323 336 281 342 348 350 345 3 357 332 333
326 334 324 313 309 311 304 322 311 309 307 313 317 322 320 315 310 321 320 317 318 323 318 314 310 287 232 231 256 288 271 275 300 326 347 331 332 344 341 332 350 327 338
Wind_Speed_850mb
20 23 22 24 26 30 34 34 35 34 34 41 49 60 52 42 42 44 52 49 50 51 49 51 50 48 39 45 46 37 28 30 26 25 29 30 30 31 35 38 37 47 52
15 27 35 37 37 37 37 38 38 42 47 53 57 49 43 43 48 56 52 48 50 53 44 44 45 42 43 43 42 42 30 29 30 28 33 30 34 35 32 37 43 39 45
23 31 39 36 40 44 45 48 48 49 51 55 53 46 46 52 56 46 44 52 28 30 37 40 41 45 40 38 38 36 29 32 33 40 42 47 36 34 29 35 39 46 44
37 36 34 42 47 49 48 46 44 47 52 50 46 47 52 51 48 42 40 29 33 33 33 29 34 44 37 34 34 34 38 34 45 41 57 36 32 38 32 33 37 42 48
44 42 42 40 45 49 47 45 47 52 49 45 48 52 51 47 36 36 31 33 13 21 26 30 31 35 38 36 39 33 40 40 50 51 38 37 48 48 43 37 34 37 44
49 49 46 42 41 44 44 46 48 47 44 48 52 53 53 38 22 21 15 11 15 22 29 25 22 26 33 35 36 37 37 36 42 42 46 59 58 55 50 43 36 37 41
52 51 49 44 43 44 44 45 43 42 45 49 54 55 50 34 21 23 22 28 23 18 24 28 27 22 23 30 34 40 48 44 40 49 45 49 51 55 52 37 39 38 37
57 54 47 45 45 41 40 41 42 43 46 45 47 45 18 35 12 16 28 13 20 30 26 22 22 24 24 28 37 43 48 53 47 41 40 44 42 56 59 46 37 39 31
55 46 42 45 41 39 39 39 42 45 46 40 39 27 11 8 39 27 25 10 22 28 29 39 44 50 53 51 51 47 41 55 44 37 42 42 41 38 38 36 37 38 30
52 39 41 37 36 35 33 37 41 42 42 41 30 24 22 28 15 14 26 33 30 36 42 49 54 54 57 45 40 40 42 52 46 45 47 49 49 47 47 45 39 39 44
36 33 31 32 34 31 35 38 41 38 35 34 26 25 18 24 23 27 39 37 39 45 51 61 47 40 45 45 48 52 62 52 45 50 50 49 50 51 48 35 42 39 42
31 32 34 32 30 33 36 40 39 35 31 28 23 16 20 22 26 34 40 43 50 53 52 52 61 62 45 40 45 50 58 41 48 50 56 58 52 50 49 44 46 47 43
34 33 30 24 28 33 39 40 33 26 24 19 19 21 24 28 32 36 39 48 51 61 57 63 56 60 40 48 53 50 48 50 47 50 53 46 44 48 50 48 46 49 50
25 29 26 28 33 38 40 33 27 22 20 21 24 29 31 32 37 40 43 51 60 57 66 66 70 60 61 49 56 43 47 52 48 49 47 46 47 46 47 50 48 55 49
29 29 30 33 36 36 31 28 26 27 25 28 31 33 37 42 41 42 48 54 54 58 58 65 66 60 64 43 34 40 47 44 43 45 47 41 39 39 45 45 44 41 42
30 30 32 35 36 31 28 29 31 32 34 33 35 36 35 42 41 44 55 52 52 59 52 65 64 57 54 34 37 40 41 36 39 42 40 36 37 37 35 39 39 41 40
29 29 31 30 28 27 29 34 36 37 36 37 34 42 44 44 46 60 63 51 48 56 59 64 59 57 55 43 40 38 32 36 39 42 42 38 37 40 40 40 39 42 44
28 28 26 25 25 29 34 39 38 35 38 37 40 41 45 52 61 68 50 44 47 54 61 57 60 59 53 39 41 35 31 32 42 41 41 40 36 38 34 34 34 32 36
22 23 23 25 31 36 37 36 38 40 40 41 42 47 54 64 65 45 44 50 54 48 58 65 66 60 52 38 36 29 34 39 41 41 44 41 36 33 32 35 35 29 30
20 20 23 29 36 40 41 40 40 35 36 44 48 47 52 58 48 47 49 49 53 54 61 68 64 56 44 37 37 36 38 39 45 40 34 20 27 24 30 29 34 25 25
20 22 28 33 38 42 37 34 35 38 41 43 47 56 58 53 45 47 53 55 53 63 73 58 59 44 41 37 36 38 44 46 45 30 26 20 19 16 19 19 11 22 26
20 27 31 40 35 28 27 30 36 42 44 48 51 57 57 49 49 46 42 51 62 66 54 44 49 54 42 33 34 37 44 45 42 18 29 9 14 22 25 13 14 16 13
22 30 36 36 21 25 34 41 44 50 56 59 60 51 54 47 49 64 78 85 66 52 43 42 46 46 45 35 30 37 42 36 29 19 28 19 16 20 21 13 2 8 14
27 35 31 16 33 39 41 46 52 53 59 54 51 51 58 70 79 76 56 48 45 43 48 55 43 44 31 35 34 36 38 30 20 15 16 22 22 20 16 10 15 19 27
29 11 15 29 37 39 39 32 50 45 46 49 55 67 79 68 47 47 56 60 60 58 55 54 45 41 43 37 30 35 29 13 22 17 10 19 23 30 9 15 26 24 29
6 15 20 30 30 34 33 41 31 37 53 67 75 73 56 50 48 38 34 35 35 34 34 31 24 19 19 22 28 29 13 15 15 14 7 24 21 28 23 11 26 27 32
Wind_Direction_850mb
244 254 258 255 268 264 260 270 265 275 283 284 287 293 297 299 299 292 294 295 295 297 298 300 301 304 306 326 336 335 331 335 332 304 296 288 286 275 267 261 263 255 251
265 251 252 255 263 268 267 274 277 278 281 288 296 301 300 299 295 293 291 293 297 293 292 294 294 300 317 327 331 331 332 344 334 324 323 315 284 279 274 269 261 260 253
253 247 242 246 251 258 268 275 280 282 284 295 297 298 299 296 296 289 291 298 301 301 298 301 294 306 319 323 330 328 297 331 326 323 318 325 318 312 281 279 272 263 258
241 257 262 260 258 261 267 273 279 284 290 292 294 300 300 301 301 299 294 283 295 303 305 307 310 305 308 319 323 321 298 314 315 319 316 309 311 322 300 286 280 265 262
249 256 264 274 268 268 269 276 284 289 291 294 301 305 308 312 314 310 302 299 298 292 296 305 306 295 294 300 308 315 305 306 309 309 296 292 305 310 310 296 291 274 261
248 252 263 274 271 267 270 277 282 288 293 301 304 307 312 311 297 324 336 322 303 289 291 300 304 296 283 291 300 297 300 301 306 306 303 305 298 303 298 284 292 288 268
247 255 266 274 273 269 270 276 282 288 300 301 304 308 310 310 290 282 307 321 310 310 314 306 294 291 285 296 303 307 311 308 306 299 298 289 288 295 303 309 284 292 275
254 255 266 272 277 268 273 282 286 294 296 300 305 312 320 320 296 315 313 321 329 331 327 314 316 312 305 299 297 293 293 298 309 305 290 285 283 292 298 296 283 284 291
249 262 268 274 270 273 281 285 291 294 297 299 304 305 318 301 317 318 312 307 321 330 316 317 317 315 315 306 289 294 303 296 314 303 288 280 275 285 294 293 291 283 277
247 254 271 267 271 275 281 290 294 297 298 298 301 294 294 304 331 309 315 299 305 314 318 317 316 317 324 307 293 305 305 299 295 296 296 295 288 282 286 290 285 284 264
248 267 272 279 276 281 288 298 302 301 299 301 303 301 302 316 311 320 322 328 317 311 307 308 319 319 316 309 304 307 306 306 296 292 289 284 283 280 283 280 284 284 273
253 272 277 282 280 285 295 305 303 302 300 302 303 298 320 315 329 327 318 317 316 316 310 316 324 320 309 289 296 305 308 308 309 297 292 289 283 282 279 279 277 279 278
249 274 279 282 282 290 304 305 303 303 308 296 296 301 306 307 304 308 304 310 310 316 312 318 326 325 320 291 293 302 304 305 307 309 298 296 288 279 275 275 272 277 268
264 270 278 289 292 300 304 301 307 316 317 302 298 293 299 298 298 300 306 313 311 309 311 318 321 324 320 294 292 291 294 302 305 311 307 301 293 282 281 278 276 278 266
270 275 281 284 292 300 301 309 318 321 317 321 305 293 294 296 292 300 302 303 309 300 304 315 316 320 318 307 293 297 299 300 307 315 308 298 293 283 280 277 277 275 266
272 274 277 285 295 297 308 318 312 309 300 301 310 300 300 296 293 297 300 303 302 299 304 312 318 319 321 311 308 301 300 298 306 312 312 302 294 287 279 279 276 272 272
271 277 285 289 294 309 314 301 301 301 295 303 305 299 301 303 300 300 300 297 297 297 298 307 312 316 316 307 305 305 296 300 302 308 314 305 293 288 290 279 278 269 273
270 279 287 294 304 304 298 297 299 298 298 297 297 300 307 308 307 305 297 298 299 302 299 299 305 312 315 309 309 303 297 298 301 305 310 308 294 288 287 277 278 270 268
275 290 299 306 304 301 299 299 299 297 297 300 302 305 311 313 311 302 296 295 303 309 308 296 296 305 308 309 309 301 294 296 296 303 307 300 284 284 284 279 273 271 264
301 308 310 307 305 302 301 298 298 302 306 303 305 308 311 311 315 308 304 303 303 309 314 301 290 296 301 306 311 320 314 314 312 309 313 317 317 293 290 281 271 270 266
307 307 307 309 310 306 308 300 302 308 307 307 306 308 304 302 304 300 300 301 297 302 306 296 290 292 295 304 303 310 317 316 318 332 317 329 307 322 312 301 282 254 264
306 311 311 306 314 325 325 316 311 306 309 305 301 299 291 291 289 288 289 296 299 303 302 291 298 290 291 296 299 301 314 323 323 342 317 332 338 341 344 294 260 294 276
303 308 311 319 334 331 322 312 310 302 302 296 294 297 301 293 297 304 301 300 296 289 285 293 292 301 276 286 293 299 308 314 312 328 314 316 357 345 337 54 105 307 313
302 312 319 321 317 318 315 307 305 302 298 299 303 301 302 308 307 304 301 296 283 281 287 290 291 269 276 280 277 285 303 304 310 322 306 317 353 344 338 10 346 325 332
313 344 332 318 315 314 318 315 317 305 303 302 301 307 314 316 310 294 292 294 295 300 295 293 288 280 264 267 256 281 298 289 323 336 281 342 348 350 345 3 357 332 333
326 334 324 313 309 311 304 322 311 309 307 313 317 322 320 315 310 321 320 317 318 323 318 314 310 287 232 231 256 288 271 275 300 326 347 331 332 344 341 332 350 327 338